Weather History for La Junta, CO

Change the Weather History Date:

Saturday, June 30, 2012

  Actual Average Record
Temperature  
Mean Temperature 87 °F 77 °F  
Max Temperature 104 °F 93 °F 107 °F (1990)
Min Temperature 69 °F 61 °F 51 °F (1951)
Degree Days  
Heating Degree Days 0 0  
Month to date heating degree days 0 15  
Since 1 June heating degree days 0 16  
Since 1 July heating degree days 4741 5271  
Cooling Degree Days 22 12  
Month to date cooling degree days 477 244  
Year to date cooling degree days 599 317  
Since 1 June cooling degree days 477 244  
Growing Degree Days 36 (Base 50)    
Moisture  
Dew Point 44 °F    
Average Humidity 28    
Maximum Humidity 47    
Minimum Humidity 9    
Precipitation  
Precipitation 0.00 in 0.04 in 0.83 in (1984)
Month to date precipitation 0.09 1.36  
Year to date precipitation 2.90 5.65  
Snow  
Snow 0.00 in - - ()
Month to date snowfall 0.0  
Since 1 June snowfall 0.0  
Snow Depth 0.00 in    
Sea Level Pressure  
Sea Level Pressure 29.71 in    
Wind  
Wind Speed 12 mph (ESE)    
Max Wind Speed 33 mph    
Max Gust Speed 41 mph    
Visibility 10 miles    
Events      
T = Trace of Precipitation, MM = Missing Value Source: NWS Daily Summary

Daily Weather History Graph

Daily Weather History Graph

Search for Another Location

Airport:

Trip Planner

Search our weather history database for the weather conditions in past years. The results will help you decide how hot, cold, wet, or windy it might be!

Date:

Astronomy

Jun. 30, 2012 Rise Set
Actual Time 5:34 AM MDT 8:20 PM MDT
Civil Twilight 5:03 AM MDT 8:52 PM MDT
Nautical Twilight 4:24 AM MDT 9:31 PM MDT
Astronomical Twilight 3:39 AM MDT 10:15 PM MDT
Moon 5:20 PM MDT (6/30) 2:30 AM MDT (6/30)
Length of Visible Light 15h 48m
Length of Day
14h 45m
Waxing Gibbous, 87% of the Moon is Illuminated
Jun 30
Waxing Gibbous
Jul 3
Full
Jul 10
Last Quarter
Jul 18
New
Jul 26
First Quarter

Hourly Weather History & Observations

Time (MDT) Temp. Dew Point Humidity Pressure Visibility Wind Dir Wind Speed Gust Speed Precip Events Conditions
12:53 AM 80.1 °F 43.0 °F 27% 29.75 in 10.0 mi ENE 10.4 mph - N/A   Clear
1:53 AM 80.1 °F 46.9 °F 31% 29.76 in 10.0 mi East 18.4 mph - N/A   Clear
2:53 AM 79.0 °F 46.9 °F 32% 29.75 in 10.0 mi East 10.4 mph - N/A   Clear
3:53 AM 75.9 °F 48.9 °F 38% 29.75 in 10.0 mi SE 5.8 mph - N/A   Clear
5:53 AM 70.0 °F 48.0 °F 46% 29.76 in 10.0 mi West 11.5 mph - N/A   Clear
6:53 AM 73.0 °F 46.9 °F 39% 29.78 in 10.0 mi West 10.4 mph - N/A   Clear
7:53 AM 79.0 °F 46.0 °F 31% 29.78 in 10.0 mi WNW 11.5 mph - N/A   Clear
8:53 AM 86.0 °F 46.0 °F 25% 29.76 in 10.0 mi WNW 11.5 mph - N/A   Clear
9:53 AM 90.0 °F 46.0 °F 22% 29.75 in 10.0 mi West 8.1 mph - N/A   Clear
10:53 AM 93.9 °F 45.0 °F 18% 29.74 in 10.0 mi West 4.6 mph - N/A   Clear
11:53 AM 97.0 °F 44.1 °F 16% 29.73 in 10.0 mi NNW 4.6 mph - N/A   Clear
12:53 PM 100.0 °F 45.0 °F 15% 29.70 in 10.0 mi East 8.1 mph - N/A   Clear
1:53 PM 100.9 °F 37.9 °F 11% 29.68 in 10.0 mi SSE 9.2 mph 17.3 mph N/A   Clear
2:53 PM 100.9 °F 37.9 °F 11% 29.67 in 10.0 mi SSE 9.2 mph - N/A   Clear
3:53 PM 100.9 °F 35.1 °F 10% 29.64 in 10.0 mi Calm Calm - N/A   Clear
4:53 PM 102.0 °F 33.1 °F 9% 29.62 in 10.0 mi WSW 6.9 mph - N/A   Clear
5:53 PM 98.1 °F 39.9 °F 13% 29.64 in 10.0 mi NNE 24.2 mph 34.5 mph N/A   Clear
6:53 PM 93.0 °F 43.0 °F 18% 29.65 in 10.0 mi ENE 27.6 mph 41.4 mph N/A   Clear
7:53 PM 89.1 °F 42.1 °F 19% 29.65 in 10.0 mi East 21.9 mph 29.9 mph N/A   Clear
8:53 PM 87.1 °F 44.1 °F 22% 29.67 in 10.0 mi ESE 17.3 mph - N/A   Clear
9:53 PM 84.0 °F 46.9 °F 27% 29.70 in 10.0 mi SE 16.1 mph - N/A   Clear
10:53 PM 84.9 °F 45.0 °F 25% 29.70 in 10.0 mi SE 15.0 mph - N/A   Clear
11:53 PM 82.9 °F 46.0 °F 27% 29.70 in 10.0 mi SSE 12.7 mph - N/A   Clear